Home > Weather > Koblenz > Past weeks

Flag for Germany Weather for the Past 2 Weeks in Koblenz, Rhineland-Palatinate, Germany

Now
52 °F

Cool.


Feels Like: 47 °F
Forecast: 37 / 67 °F
Wind: 14 mph from North

Location: Buechel

Current Time: May 1, 2016 at 3:52:25 PM

Latest Report: May 1, 2016 at 3:20 PM


Visibility: N/A

Pressure: 30.21 "Hg

Humidity: 72%

Dew Point: 43 °F

Location of KoblenzLocation

Historic Weather in Koblenz — Graph

°F

Koblenz Temperature Yesterday

Maximum temperature yesterday: 48 °F (at 11:20 AM)
Minimum temperature yesterday: 39 °F (at 5:20 AM)
Average temperature yesterday: 42 °F

High & Low Weather Summary for the Past Weeks

 TemperatureHumidityPressure
High64 °F (Apr 21, 5:20 PM)100% (Apr 17, 1:20 AM)30.42 "Hg (Apr 17, 1:20 AM)
Low28 °F (Apr 25, 4:20 AM)32% (Apr 21, 5:20 PM)29.53 "Hg (Apr 26, 1:20 AM)
Average41 °F74%29.96 "Hg
* Reported Apr 16 2:20 PM — May 1 2:20 PM, Koblenz, Weather by CustomWeather, © 2016

Note: Actual official high and low records may vary slightly from our data, if they occured in-between our weather recording intervals... More about our weather records

Advertising

Koblenz Weather History for the Previous 24 Hours

Scroll right to see more
 ConditionsComfort  
Time TempWeatherWind HumidityBarometerVisibility
2:20 PM
Sun, May 1
50 °FCool.14 mph71%30.21 "HgN/A
1:20 PM46 °FCool.16 mph76%30.18 "HgN/A
12:20 PM43 °FQuite cool.16 mph87%30.18 "HgN/A
11:20 AM41 °FQuite cool.14 mph87%30.18 "HgN/A
10:20 AM39 °FChilly.14 mph93%30.18 "HgN/A
9:20 AM39 °FChilly.16 mph93%30.15 "HgN/A
8:20 AM39 °FChilly.14 mph87%30.15 "HgN/A
7:20 AM39 °FChilly.15 mph93%30.12 "HgN/A
6:20 AM37 °FChilly.10 mph100%30.12 "Hg5 mi
5:20 AM37 °FChilly.13 mph100%30.12 "Hg3 mi
4:20 AM37 °FChilly.14 mph93%30.12 "Hg1 mi
3:20 AM37 °FChilly.16 mph93%30.09 "Hg1 mi
2:20 AM39 °FChilly.14 mph93%30.09 "Hg2 mi
1:20 AM39 °FChilly.14 mph93%30.09 "Hg4 mi
12:20 AM39 °FChilly.13 mph93%30.09 "Hg3 mi
11:20 PM
Sat, Apr 30
39 °FChilly.12 mph93%30.09 "Hg3 mi
10:20 PM41 °FQuite cool.9 mph93%30.09 "Hg3 mi
9:20 PM41 °FQuite cool.12 mph93%30.07 "Hg4 mi
8:20 PM41 °FQuite cool.8 mph93%30.04 "Hg4 mi
7:20 PM41 °FQuite cool.12 mph93%30.04 "Hg6 mi
6:20 PM41 °FQuite cool.9 mph93%30.04 "Hg4 mi
5:20 PM41 °FQuite cool.10 mph93%30.04 "Hg4 mi
4:20 PM41 °FQuite cool.9 mph93%30.04 "Hg4 mi
3:20 PM41 °FQuite cool.9 mph100%30.04 "Hg2 mi
Weather by CustomWeather, © 2016

See weather overviewHow to use our weather pages